Wind_Speed
40 39 39 38 38 38 38 38 39 39 41 42 42 44 45 46 46 46 47 47 46 46 45 44 44 43 43 43 42 41 40 38 38 37 36 36 34 33 33 32 32 32 32
41 41 40 40 40 40 40 41 41 41 42 43 44 45 47 48 49 49 50 49 49 49 49 48 47 47 47 46 46 45 43 42 41 40 39 38 37 36 36 35 34 35 35
42 42 41 41 41 41 42 42 43 43 44 44 45 46 48 49 50 51 51 51 52 52 52 51 51 51 50 49 49 48 47 46 45 43 42 41 40 39 38 37 37 37 38
42 42 43 43 43 43 43 43 43 43 44 45 45 46 47 49 49 51 52 53 54 55 55 54 54 54 53 52 51 51 50 49 48 47 46 45 43 42 41 40 40 41 41
42 43 43 43 43 43 42 42 42 43 43 44 45 46 47 48 49 51 52 54 55 56 57 57 57 57 55 55 54 53 53 52 51 50 49 48 46 45 44 43 43 43 44
41 41 41 41 41 41 41 41 41 42 42 43 44 46 47 48 50 51 53 54 55 57 58 59 60 60 59 58 57 56 56 55 54 53 52 51 49 47 47 46 45 46 46
37 37 37 38 38 39 39 40 40 42 43 44 45 47 49 50 52 54 55 56 57 58 59 61 62 62 62 62 61 59 58 58 57 56 54 54 52 50 50 49 48 48 48
32 33 34 35 36 36 37 38 40 42 43 45 47 49 51 53 55 57 59 60 61 62 63 63 63 64 64 64 63 62 61 60 59 58 57 57 56 54 52 52 51 51 51
29 30 31 32 33 34 36 37 39 41 43 46 48 50 52 55 57 60 63 65 67 67 67 67 67 66 65 65 65 63 63 62 61 61 60 59 58 56 55 54 54 54 54
27 28 29 31 32 33 35 36 39 41 43 45 47 49 52 55 58 61 64 67 69 70 70 70 70 69 67 66 65 64 64 63 62 62 61 60 59 59 58 57 56 56 56
26 27 28 30 31 32 33 35 37 38 40 42 45 48 51 55 58 61 63 65 67 69 69 70 69 68 67 66 64 63 63 63 62 62 61 61 61 61 59 59 58 57 57
25 26 27 28 29 30 31 32 34 35 38 40 43 46 49 51 54 56 58 60 62 63 64 65 65 65 64 63 62 61 60 60 61 61 61 61 61 61 60 59 58 58 59
24 25 26 27 28 29 30 31 31 33 35 38 40 42 44 46 47 47 48 50 51 52 54 56 57 57 57 57 57 56 55 55 56 57 58 59 59 59 59 58 58 58 59
22 22 23 24 26 27 27 28 28 30 32 34 35 38 40 41 41 40 39 38 39 40 42 45 47 47 48 48 49 48 48 48 49 50 52 53 54 55 55 56 56 58 59
19 20 21 23 24 24 24 24 25 26 28 30 31 33 35 35 34 32 30 29 29 31 33 34 35 36 37 39 39 40 40 41 42 43 45 47 49 49 50 53 55 56 59
17 19 20 21 21 22 22 22 23 23 25 26 27 27 28 28 28 26 24 23 22 22 23 25 25 26 28 29 30 31 33 34 36 38 39 42 44 44 48 50 52 55 58
16 18 19 20 20 21 21 20 20 21 21 22 23 23 23 23 22 21 20 19 17 16 16 16 17 18 19 20 22 24 26 28 30 33 36 39 40 43 46 49 52 54 55
15 17 17 18 18 18 18 18 19 18 18 19 19 20 20 19 19 17 16 15 13 12 10 10 11 12 13 15 17 20 22 24 27 30 34 36 38 41 44 46 48 50 52
14 15 16 17 17 17 17 16 16 16 16 16 17 17 17 16 16 15 14 12 11 8 6 6 8 9 11 13 15 17 20 23 26 28 31 33 36 38 41 44 46 50 53
13 14 15 15 15 15 15 14 14 14 14 14 15 15 15 15 14 14 13 12 11 8 6 5 5 6 7 10 12 15 17 20 22 25 28 32 35 38 41 44 47 50 53
14 14 14 14 14 14 14 13 13 12 13 13 13 13 14 14 14 13 13 13 11 10 8 6 6 6 7 9 12 14 17 19 22 25 29 33 36 39 42 45 48 50 52
14 14 14 14 13 13 13 12 12 12 12 12 13 13 13 14 13 13 13 12 11 10 9 8 8 9 10 11 13 16 19 22 25 28 31 34 38 41 44 47 49 50 52
15 14 14 14 13 13 13 13 12 12 12 12 13 13 14 14 14 13 12 11 11 10 10 11 11 12 13 15 17 19 22 25 28 31 34 37 40 43 46 48 50 51 53
15 15 14 14 13 13 13 13 13 13 13 13 13 14 14 14 14 13 13 12 12 12 12 13 14 15 17 19 21 23 25 28 31 33 36 40 43 46 47 49 51 53 54
17 16 15 14 14 13 13 13 13 13 13 14 14 14 14 14 14 14 13 13 14 14 15 16 17 19 20 22 24 27 29 31 34 37 40 43 46 48 49 51 52 52 51
18 18 17 16 15 14 14 15 15 14 15 15 15 15 15 15 15 15 15 15 16 17 18 19 21 22 24 26 28 30 32 34 37 39 42 45 47 49 50 51 50 49 47
Wind_Direction
245 246 247 249 252 255 257 260 262 264 265 266 267 268 268 268 268 269 268 268 267 267 267 267 267 268 268 269 269 269 270 271 271 273 274 276 277 279 280 281 282 284 285
247 249 252 254 257 259 261 263 265 266 266 267 267 267 267 267 268 269 270 270 269 269 268 267 266 266 266 266 267 268 268 269 270 271 273 275 276 277 278 280 281 282 283
248 251 255 258 262 264 266 267 268 268 268 268 268 268 268 269 269 270 269 269 268 267 267 265 264 264 264 265 265 266 267 268 269 270 272 273 274 275 277 279 279 280 282
250 254 258 261 265 267 269 270 270 270 270 270 270 270 269 269 269 268 268 267 267 267 267 266 265 264 264 264 264 264 265 267 268 269 270 271 272 273 275 276 278 279 281
253 257 260 264 266 269 270 271 272 272 272 272 272 271 271 270 269 268 267 266 266 266 266 265 264 264 263 262 261 262 263 265 266 267 268 270 271 272 273 275 277 278 280
255 258 261 264 266 268 270 272 273 273 274 274 274 273 272 271 270 269 268 266 265 264 264 263 263 262 261 260 260 259 260 262 263 265 267 269 270 271 273 274 275 277 279
255 258 260 263 266 268 271 273 274 275 276 276 276 276 275 274 273 272 270 268 267 265 264 262 261 260 259 258 258 258 258 259 261 262 264 266 268 270 272 274 275 277 279
255 258 261 264 267 270 272 274 276 277 278 279 279 279 279 278 276 275 273 271 268 266 264 262 261 259 259 258 258 257 257 258 259 260 262 264 266 269 271 273 275 277 279
254 257 261 265 268 271 274 276 278 279 280 281 282 282 282 281 280 278 276 273 270 268 265 262 260 259 257 257 257 257 257 258 259 260 262 264 266 268 271 273 275 277 279
254 259 263 267 271 274 276 278 280 281 283 283 284 285 285 284 283 281 278 275 271 268 266 263 261 259 257 256 256 256 257 258 259 260 262 264 266 269 271 273 275 277 278
256 261 266 270 272 275 278 280 283 284 285 285 287 287 288 287 286 283 280 275 272 269 266 263 261 260 258 256 255 255 256 257 259 261 262 264 267 269 271 273 275 276 278
259 263 267 271 273 276 280 283 285 286 288 289 291 292 293 293 292 287 282 278 274 270 266 263 261 259 258 257 256 255 255 256 257 259 262 264 266 268 270 273 275 276 277
259 264 268 271 274 278 282 285 287 290 293 295 297 300 301 302 300 294 288 282 277 272 267 263 260 259 258 257 256 256 255 255 256 258 260 263 265 268 270 272 274 275 276
260 266 270 274 277 280 283 286 290 294 298 301 303 306 308 309 307 301 294 288 280 274 268 263 260 258 256 255 255 255 255 255 256 258 260 262 265 267 270 272 272 275 276
265 271 276 279 281 282 285 288 292 299 305 308 310 311 314 314 313 309 301 292 284 275 270 264 259 256 254 252 252 252 253 254 255 257 260 262 265 268 270 272 274 275 277
275 279 281 282 282 283 285 288 294 303 310 315 317 318 321 320 319 316 310 301 290 280 272 264 257 252 251 250 248 248 250 252 255 257 259 263 266 268 271 273 274 276 279
282 283 283 285 286 284 285 289 296 304 312 320 323 325 326 327 327 324 321 315 303 289 275 262 252 247 245 246 247 247 250 251 254 257 261 265 266 269 273 276 279 282 284
285 288 288 288 290 289 288 290 297 303 312 322 327 331 333 333 332 332 333 333 322 303 286 267 252 244 237 238 244 245 249 253 258 262 266 268 270 274 278 282 285 288 290
289 292 293 291 291 293 293 294 300 304 310 320 328 333 338 341 343 342 342 343 343 335 316 292 255 245 243 247 251 253 256 259 262 266 271 275 280 283 286 289 292 294 296
292 297 297 297 295 295 297 298 305 309 313 319 327 333 338 342 348 353 356 356 357 356 345 328 290 272 266 263 263 265 267 270 272 278 282 285 288 290 293 296 298 299 300
295 298 299 300 299 298 300 302 308 314 320 325 330 335 340 341 343 347 351 354 354 354 350 337 321 304 293 282 279 282 284 284 286 289 291 293 295 296 298 300 301 302 302
295 297 298 300 300 300 301 305 310 316 322 328 333 336 339 342 344 345 344 345 346 345 344 337 326 317 311 304 299 297 296 295 295 296 297 299 300 302 303 304 304 304 304
292 295 297 298 297 297 298 302 308 314 320 324 328 331 334 338 340 340 340 340 340 337 333 328 322 316 312 308 305 303 302 301 301 301 302 303 305 306 307 307 306 306 306
288 290 293 296 296 295 296 300 306 310 314 318 321 324 327 329 330 331 330 330 329 327 324 321 318 315 312 309 307 305 304 305 305 305 306 307 309 310 309 308 307 307 307
283 285 287 290 292 291 292 296 301 305 308 312 315 317 320 321 322 322 322 321 320 319 318 316 315 313 312 311 309 308 308 308 309 309 310 311 312 311 310 309 308 308 307
280 281 281 283 286 287 288 290 293 297 301 305 309 312 314 315 316 317 317 316 316 317 316 315 315 314 314 312 311 311 310 310 311 311 312 313 313 313 312 311 310 309 308
Height
5782 5786 5789 5792 5794 5796 5797 5798 5799 5799 5799 5799 5799 5798 5798 5797 5796 5796 5796 5795 5795 5795 5795 5795 5795 5795 5795 5794 5793 5793 5793 5793 5792 5792 5791 5791 5790 5789 5788 5787 5786 5784 5782
5775 5778 5781 5784 5786 5788 5789 5790 5790 5790 5790 5790 5790 5789 5789 5788 5787 5787 5786 5786 5786 5785 5785 5785 5785 5785 5785 5784 5784 5784 5784 5784 5784 5783 5782 5782 5783 5781 5780 5779 5778 5776 5774
5768 5771 5773 5775 5777 5779 5780 5780 5781 5781 5780 5780 5780 5780 5779 5779 5778 5777 5777 5776 5774 5774 5774 5774 5774 5774 5774 5774 5774 5774 5774 5774 5774 5774 5774 5774 5774 5772 5772 5770 5769 5767 5766
5761 5763 5765 5767 5768 5769 5770 5771 5770 5770 5770 5770 5769 5769 5769 5768 5768 5766 5765 5763 5762 5762 5762 5761 5761 5762 5762 5762 5763 5763 5763 5763 5763 5763 5763 5764 5763 5763 5762 5761 5759 5758 5756
5753 5755 5757 5758 5759 5760 5760 5760 5760 5760 5759 5758 5758 5757 5757 5756 5755 5754 5753 5751 5750 5749 5749 5748 5748 5748 5749 5750 5750 5751 5751 5751 5752 5752 5752 5752 5752 5752 5751 5750 5749 5747 5746
5746 5747 5749 5750 5750 5751 5751 5750 5750 5749 5748 5747 5746 5745 5744 5743 5742 5741 5739 5738 5737 5737 5736 5735 5734 5735 5735 5736 5737 5738 5738 5739 5739 5740 5741 5741 5741 5741 5740 5739 5738 5737 5735
5738 5739 5740 5741 5741 5741 5741 5740 5739 5738 5737 5736 5734 5733 5731 5730 5728 5726 5725 5723 5722 5722 5721 5720 5720 5720 5721 5721 5722 5724 5725 5726 5726 5727 5728 5728 5729 5729 5729 5728 5727 5725 5724
5730 5731 5732 5732 5732 5732 5731 5730 5729 5728 5726 5724 5722 5720 5718 5715 5713 5711 5708 5706 5705 5705 5704 5703 5704 5705 5705 5706 5708 5710 5712 5713 5714 5715 5715 5716 5717 5717 5716 5716 5715 5713 5712
5721 5722 5723 5723 5723 5722 5721 5720 5719 5717 5715 5712 5710 5707 5704 5701 5698 5694 5690 5688 5685 5684 5684 5684 5685 5687 5689 5691 5693 5695 5697 5699 5701 5702 5703 5703 5704 5704 5704 5704 5703 5702 5699
5713 5714 5714 5714 5714 5713 5712 5711 5709 5707 5704 5701 5698 5694 5690 5686 5681 5676 5671 5667 5664 5662 5662 5662 5664 5667 5670 5673 5677 5680 5683 5685 5687 5688 5690 5691 5691 5692 5691 5691 5690 5689 5686
5706 5707 5706 5706 5706 5705 5703 5702 5700 5697 5694 5690 5686 5682 5676 5670 5664 5657 5651 5646 5643 5640 5640 5640 5643 5646 5650 5655 5659 5663 5667 5670 5673 5675 5677 5678 5679 5679 5679 5678 5677 5675 5673
5700 5700 5699 5699 5698 5697 5695 5693 5690 5687 5684 5680 5675 5669 5662 5654 5646 5638 5632 5626 5622 5619 5619 5620 5623 5627 5631 5636 5641 5647 5651 5655 5659 5661 5663 5664 5665 5666 5666 5665 5663 5661 5658
5694 5693 5693 5692 5690 5689 5687 5684 5681 5678 5674 5669 5663 5656 5648 5640 5631 5622 5615 5609 5604 5602 5602 5603 5606 5610 5615 5620 5625 5631 5636 5640 5644 5647 5650 5651 5652 5652 5652 5651 5649 5646 5644
5688 5687 5686 5684 5683 5681 5678 5676 5673 5669 5664 5658 5652 5645 5637 5628 5619 5610 5602 5596 5592 5590 5589 5590 5592 5596 5601 5606 5611 5616 5622 5627 5631 5634 5636 5638 5639 5639 5638 5637 5635 5632 5629
5681 5680 5679 5677 5675 5673 5671 5668 5665 5661 5656 5650 5643 5636 5628 5619 5610 5602 5594 5589 5584 5581 5580 5581 5582 5585 5590 5595 5599 5605 5610 5615 5619 5622 5624 5625 5626 5626 5625 5623 5621 5618 5615
5675 5674 5672 5670 5668 5666 5664 5661 5657 5653 5648 5642 5636 5629 5621 5613 5605 5597 5590 5584 5580 5577 5575 5575 5576 5579 5583 5587 5591 5596 5601 5605 5608 5611 5613 5614 5614 5613 5612 5610 5608 5604 5600
5669 5668 5666 5664 5662 5659 5657 5654 5651 5647 5642 5636 5630 5624 5617 5610 5602 5595 5589 5583 5578 5575 5573 5572 5573 5575 5578 5582 5586 5590 5593 5597 5600 5602 5603 5604 5603 5603 5601 5598 5594 5590 5586
5664 5662 5660 5658 5656 5653 5651 5648 5644 5641 5636 5631 5626 5620 5614 5607 5601 5594 5589 5583 5578 5575 5573 5572 5572 5574 5577 5579 5582 5585 5588 5591 5593 5594 5595 5594 5593 5592 5589 5586 5582 5577 5572
5659 5657 5655 5653 5650 5648 5645 5642 5639 5635 5631 5627 5622 5617 5611 5606 5600 5594 5589 5584 5580 5577 5574 5573 5573 5574 5576 5578 5580 5582 5584 5586 5587 5587 5587 5586 5584 5582 5579 5574 5569 5564 5558
5653 5652 5650 5648 5645 5643 5640 5637 5634 5631 5627 5623 5619 5614 5610 5605 5600 5595 5590 5586 5582 5579 5577 5575 5575 5575 5576 5577 5578 5579 5580 5581 5581 5580 5579 5577 5574 5571 5567 5562 5556 5550 5543
5649 5647 5645 5643 5641 5638 5636 5633 5630 5627 5624 5620 5616 5612 5608 5604 5599 5595 5591 5587 5584 5581 5579 5577 5576 5576 5576 5576 5577 5577 5576 5576 5575 5573 5571 5568 5565 5561 5556 5550 5543 5536 5529
5644 5642 5640 5638 5636 5634 5632 5629 5627 5624 5621 5617 5614 5610 5607 5603 5599 5595 5591 5588 5585 5583 5580 5579 5577 5576 5576 5575 5574 5573 5572 5570 5568 5566 5563 5559 5555 5549 5543 5537 5529 5522 5514
5639 5638 5636 5634 5632 5630 5628 5626 5623 5621 5618 5615 5612 5609 5605 5601 5598 5595 5591 5588 5586 5583 5581 5579 5577 5576 5574 5572 5571 5569 5567 5564 5561 5558 5554 5549 5543 5537 5530 5523 5515 5508 5499
5634 5633 5631 5630 5628 5626 5624 5622 5620 5617 5615 5612 5609 5606 5603 5600 5597 5594 5591 5588 5585 5582 5580 5578 5576 5573 5571 5569 5566 5563 5561 5557 5553 5549 5544 5538 5532 5525 5518 5510 5502 5494 5485
5629 5628 5627 5625 5623 5622 5620 5618 5616 5614 5612 5609 5607 5604 5601 5598 5595 5592 5589 5586 5583 5580 5578 5575 5572 5570 5567 5564 5561 5557 5553 5549 5545 5539 5534 5527 5520 5513 5505 5497 5489 5480 5471
5624 5623 5621 5620 5619 5617 5616 5614 5613 5611 5609 5606 5603 5601 5598 5595 5592 5589 5586 5583 5580 5577 5574 5571 5568 5565 5562 5558 5554 5550 5546 5541 5535 5529 5523 5516 5508 5500 5492 5484 5475 5466 5458